Regional Weather Roundup
Issued by NWS

Home | Current Version | Previous Version | Graphics & Text | Print | Product List | Glossary On
Versions: 1 2 3 4 5 6 7 8 9 10 11 12 13 14 15 16 17 18 19 20 21 22 23 24 25 26 27 28 29 30 31 32 33 34 35 36 37 38 39 40 41 42 43 44 45 46 47 48 49 50
000
ASUS43 KMPX 231510
RWRMN
WEATHER ROUNDUP FOR MINNESOTA
NATIONAL WEATHER SERVICE TWIN CITIES/CHANHASSEN MN
1000 AM CDT WED APR 23 2014


NOTE: "FAIR" INDICATES FEW OR NO CLOUDS BELOW 12,000 FEET WITH NO
SIGNIFICANT WEATHER AND/OR OBSTRUCTIONS TO VISIBILITY. N/A MEANS
CURRENT SKY AND/OR WEATHER CONDITIONS ARE NOT AVAILABLE.

MNZ060>063-068>070-231600-
   Twin Cities Metro

CITY           SKY/WX    TMP DP  RH WIND       PRES   REMARKS
TWIN CITIES    CLOUDY    45  29  53 SE10      30.09S
ST PAUL        CLOUDY    46  27  47 SE14G28   30.10S
CRYSTAL        CLOUDY    47  26  44 SE13      30.08R
BLAINE         CLOUDY    48  28  46 SE10G21   30.08F
EDEN PRAIRIE   CLOUDY    47  29  49 SE14      30.07R
LAKEVILLE      CLOUDY    43  28  56 SE13G18   30.07S
SOUTH ST PAUL  CLOUDY    48  28  46 SE8G17    30.10R
LAKE ELMO      FAIR      45  30  57 SE12G17   30.10S
$$
MNZ001>005-007-008-013>017-022>024-027-028-231600-
   Northwest Minnesota

CITY           SKY/WX    TMP DP  RH WIND       PRES   REMARKS
BEMIDJI        CLOUDY    45  26  47 SE14      30.01F
HALLOCK          N/A     48  28  46 SE15      29.91F
ROSEAU         CLOUDY    48  27  43 SE9       29.98F
WARROAD        CLOUDY    43  30  61 E7        30.01F
THIEF RVR FALL CLOUDY    46  27  46 SE14      29.94F
CROOKSTON      CLOUDY    52  27  37 S22       29.92F
FOSSTON        CLOUDY    48  21  34 SE16G22   29.94F
DETROIT LAKES  DRIZZLE   45  32  61 SE20G28   29.95F
MOORHEAD       HVY RAIN  45  43  93 SE21G26   29.90F
PARK RAPIDS    CLOUDY    45  25  45 SE16      29.99F
$$
MNZ006-009>011-018-025>026-231600-
   North Central Minnesota

CITY           SKY/WX    TMP DP  RH WIND       PRES   REMARKS
BAUDETTE       CLOUDY    47  25  42 SE9       30.03F
FLAG ISLAND    PTSUNNY   43  25  49 SE7       30.03F
INTL FALLS     PTSUNNY   48  22  35 S12G17    30.06F
WASKISH        CLOUDY    48  27  43 SE6       30.03F
BIG FORK       CLOUDY    46  25  42 SE7       30.07F
LONGVILLE      CLOUDY    45  27  49 SE8       30.04F
GRAND RAPIDS   CLOUDY    45  25  45 SE10G16   30.07F
CRANE LAKE     PTSUNNY   48  25  40 SE3       30.10F
ORR            PTSUNNY   48  19  32 SE10      30.06F
COOK           CLOUDY    46  25  42 S9        30.09F
$$
MNZ012-019>021-037-231600-
   Northeast Minnesota

CITY           SKY/WX    TMP DP  RH WIND       PRES   REMARKS
DULUTH         CLOUDY    41  25  53 SE8       30.12R
ELY            PTSUNNY   46  21  36 SE8       30.10F
HIBBING        CLOUDY    45  25  45 S8G17     30.10S
EVELETH        CLOUDY    45  27  49 SE6       30.11S
DULUTH HARBOR  CLOUDY    34  30  86 CALM      30.16S
TWO HARBORS    CLOUDY    43  27  52 E3        30.11S
SILVER BAY     PTSUNNY   43  30  61 NE3       30.11S
GRAND MARAIS     N/A     37  30  75 CALM      30.17S
G MARAIS ARPRT MOSUNNY   43  21  42 S3        30.13S
$$
MNZ029>031-032-039>041-046>048-054>057-064-231600-
   West Central Minnesota

CITY           SKY/WX    TMP DP  RH WIND       PRES   REMARKS
FERGUS FALLS   RAIN      41  37  87 SE20G26   29.91F
WHEATON        DRIZZLE   45  41  87 SE22G30   29.91F
MORRIS         CLOUDY    41  37  87 SE20      29.93S
ALEXANDRIA     LGT RAIN  40  35  83 SE15      30.00F
ELBOW LAKE     LGT RAIN  40  38  95 SE21G28   29.95S
WADENA         LGT RAIN  43  28  56 SE17G25   29.99F
GLENWOOD       RAIN      39  37  93 SE15G22   30.00F
APPLETON       MIX PCPN  45  37  76 SE20G28   29.93S
BENSON         LGT RAIN  43  37  81 SE16G30   29.95F
ORTONVILLE     CLOUDY    43  36  75 SE20      29.90F
MADISON        CLOUDY    46  39  76 SE23      29.90F
WILLMAR        DRIZZLE   41  36  81 SE20G25   30.00F
$$
MNZ033>034-036-042>043-049>051-058-059-231600-
   Central Minnesota

CITY           SKY/WX    TMP DP  RH WIND       PRES   REMARKS
ST CLOUD       CLOUDY    47  25  42 SE14      30.07R
SAUK CENTRE    RAIN      40  35  83 SE10      30.04S
PAYNESVILLE    RAIN      40  35  83 SE5       30.05S
AITKIN         CLOUDY    46  25  42 SE12      30.06F
PINE RIVER     CLOUDY    45  28  53 SE10      30.07F
BRAINERD       CLOUDY    50  25  37 SE14      30.05F
STAPLES        CLOUDY    45  27  49 SE14      30.02S
LONG PRAIRIE   CLOUDY    41  34  75 SE14G21   30.04S
LITTLE FALLS   CLOUDY    45  27  49 SE15      30.05S
LITCHFIELD     LGT RAIN  43  37  81 SE9       30.06S
BUFFALO        CLOUDY    45  28  51 SE7       30.09R
MAPLE LAKE     LGT RAIN  44  33  65 SE7       30.08R
$$
MNZ037-044-045-052-053-231600-
   East Central Minnesota

CITY           SKY/WX    TMP DP  RH WIND       PRES   REMARKS
PRINCETON      CLOUDY    46  25  42 SE12      30.08S
MORA           CLOUDY    45  28  53 SE6       30.11S
CAMBRIDGE      CLOUDY    48  30  49 SE7       30.07S
RUSH CITY      CLOUDY    45  27  49 SE10      30.11R
MOOSE LAKE     CLOUDY    45  25  45 SE7       30.09S
HINCKLEY       FAIR      45  28  53 SE8       30.11S
CLOQUET        CLOUDY    43  25  49 SE7       30.11S
MCGREGOR       CLOUDY    45  28  53 SE8       30.09F
$$
MNZ071>073-080-081-089-090-097-098-231600-
   Southwest Minnesota

CITY           SKY/WX    TMP DP  RH WIND       PRES   REMARKS
MONTEVIDEO     LGT RAIN  43  39  87 S18G29    29.96R
GRANITE FALLS  LGT RAIN  42  37  81 E24G32    29.95F
CANBY          CLOUDY    44  39  85 SE22G29   29.90F
MARSHALL       CLOUDY    43  36  75 SE21      29.90F
REDWOOD FALLS  RAIN      42  37  82 SE18G29   29.98F
OLIVIA         CLOUDY    43  36  75 SE15      29.99F
PIPESTONE      CLOUDY    46  36  66 SE21G28   29.85S
WINDOM         CLOUDY    45  36  70 E21G26    29.94F
WORTHINGTON    CLOUDY    46  30  53 SE25G33   29.91F
JACKSON        RAIN      45  36  70 SE21G26   29.94F
TRACY          CLOUDY    45  37  71 SE18G24   29.93R
SLAYTON        CLOUDY    44  35  70 SE25G35   29.90F
$$
MNZ065>067-074>077-082>085-091>093-231600-
   South Central Minnesota

CITY           SKY/WX    TMP DP  RH WIND       PRES   REMARKS
MANKATO        CLOUDY    43  30  61 S13       30.08R
NEW ULM        RAIN      41  37  87 SE15      30.02F
ST JAMES       LGT RAIN  43  36  75 E16G22    30.02F
FAIRMONT       CLOUDY    45  32  61 SE22      30.01F
GLENCOE        DRIZZLE   46  32  59 SE13      30.06R
FARIBAULT      CLOUDY    46  27  46 SE21G28   30.08S
OWATONNA       CLOUDY    45  30  57 SE15G26   30.06F
WASECA         CLOUDY    41  28  60 SE16G22   30.08S
ALBERT LEA     CLOUDY    45  30  57 SE18G28   30.06F
$$
MNZ078>079-086>088-094>096-231600-
   Southeast Minnesota

CITY           SKY/WX    TMP DP  RH WIND       PRES   REMARKS
ROCHESTER      CLOUDY    44  29  55 SE17      30.09F
RED WING       CLOUDY    46  27  46 SE10G21   30.10F
STANTON        CLOUDY    46  28  49 SE12      30.07S
DODGE CENTER   CLOUDY    45  30  57 SE20      30.08F
WINONA         CLOUDY    48  30  49 SE13      30.14F
AUSTIN         CLOUDY    43  30  61 SE12G18   30.08F
PRESTON        CLOUDY    44  28  55 SE16G22   30.11F
$$
ABBREVIATIONS USED IN REMARKS
   TC - TEMPERATURES IN CELSIUS
  WCI - WIND CHILL INDEX
   HX - HEAT INDEX
  VSB - VISIBILITY
$$


USA.gov is the U.S. government's official web portal to all federal, state and local government web resources and services.